Montgomery, NY

11:20 AM EDT on October 19, 2019 (GMT -0400)
Orange County

Weather History for KMGJ - July, 2019

Change the Weather History Date:

Tuesday, July 23, 2019

  Actual Average (KSWF) Record (KSWF)
Temperature  
Mean Temperature 70 °F -  
Max Temperature 75 °F 80 °F 96 °F (1999)
Min Temperature 64 °F 60 °F 46 °F (1981)
Cooling Degree Days 4    
Growing Degree Days 20 (Base 50)    
Moisture  
Dew Point 63 °F    
Average Humidity 87    
Maximum Humidity 100    
Minimum Humidity 60    
Precipitation  
Precipitation 0.24 in - - ()
Sea Level Pressure  
Sea Level Pressure 29.83 in    
Wind  
Wind Speed 8 mph (NNE)    
Max Wind Speed 15 mph    
Max Gust Speed 18 mph    
Visibility 10 miles    
Events Rain    
Averages and records for this station are not official NWS values.
T = Trace of Precipitation, MM = Missing Value Source: NWS Daily Summary

Daily Weather History Graph

Daily Weather History Graph

Search for Another Location

Airport or City:

Astronomy

Jul. 23, 2019 Rise Set
Actual Time 5:42 AM EDT 8:23 PM EDT
Civil Twilight 5:10 AM EDT 8:55 PM EDT
Nautical Twilight 4:30 AM EDT 9:35 PM EDT
Astronomical Twilight 3:44 AM EDT 10:21 PM EDT
Moon No Moon Rise 11:58 AM EDT (7/23)
Length of Visible Light 15h 44m
Length of Day
14h 40m
Waning Gibbous, 63% of the Moon is Illuminated
Jul 23
Waning Gibbous
Jul 24
Last Quarter
Jul 31
New
Aug 7
First Quarter
Aug 15
Full

Hourly Weather History & Observations

Time (EDT) Temp. Dew Point Humidity Pressure Visibility Wind Dir Wind Speed Gust Speed Precip Events Conditions
12:43 AM 64.9 °F 64.0 °F 97% 29.80 in 10.0 mi NNE 6.9 mph - 0.04 in Rain Light Rain
12:54 AM 64.9 °F 64.0 °F 97% 29.79 in 9.0 mi NNE 8.1 mph - 0.05 in Rain Light Rain
1:15 AM 64.0 °F 64.0 °F 100% 29.79 in 10.0 mi NE 8.1 mph - 0.00 in Rain Light Rain
1:28 AM 64.0 °F 64.0 °F 100% 29.79 in 10.0 mi NNE 8.1 mph - 0.00 in Rain Light Rain
1:54 AM 64.0 °F 64.0 °F 100% 29.78 in 4.0 mi NNE 10.4 mph - 0.04 in Rain Rain
2:54 AM 64.0 °F 63.0 °F 96% 29.78 in 10.0 mi NNE 8.1 mph - 0.01 in Rain Light Rain
3:40 AM 64.0 °F 63.0 °F 96% 29.77 in 8.0 mi NNE 6.9 mph - 0.04 in Rain Rain
3:50 AM 64.4 °F 62.6 °F 94% 29.77 in 10.0 mi NNE 8.1 mph - 0.05 in Rain Light Rain
3:54 AM 64.0 °F 63.0 °F 96% 29.77 in 10.0 mi NNE 8.1 mph - 0.05 in Rain Light Rain
4:02 AM 64.0 °F 63.0 °F 96% 29.78 in 10.0 mi NE 6.9 mph - 0.00 in Rain Light Rain
4:27 AM 64.0 °F 64.0 °F 100% 29.78 in 10.0 mi NNE 9.2 mph - 0.01 in Rain Light Rain
4:54 AM 64.0 °F 63.0 °F 96% 29.77 in 10.0 mi NNE 9.2 mph - 0.01 in   Overcast
5:54 AM 64.0 °F 63.0 °F 96% 29.79 in 10.0 mi North 9.2 mph - 0.03 in Rain Light Rain
6:54 AM 64.0 °F 63.0 °F 96% 29.78 in 10.0 mi NNE 9.2 mph - 0.05 in Rain Light Rain
7:19 AM 64.0 °F 63.0 °F 96% 29.79 in 10.0 mi NNE 8.1 mph - 0.00 in Rain Light Rain
7:51 AM 64.4 °F 64.4 °F 100% 29.80 in 10.0 mi North 9.2 mph - 0.00 in   Overcast
7:54 AM 64.9 °F 64.0 °F 97% 29.81 in 10.0 mi North 9.2 mph - 0.00 in   Overcast
8:07 AM 64.9 °F 63.0 °F 93% 29.81 in 10.0 mi North 10.4 mph - N/A   Overcast
8:54 AM 66.0 °F 63.0 °F 90% 29.82 in 10.0 mi North 9.2 mph - N/A   Overcast
9:54 AM 66.0 °F 63.0 °F 90% 29.85 in 10.0 mi North 6.9 mph - N/A   Overcast
10:07 AM 66.9 °F 64.0 °F 90% 29.85 in 10.0 mi NNE 6.9 mph - N/A   Overcast
10:22 AM 68.0 °F 64.9 °F 90% 29.85 in 10.0 mi North 10.4 mph - N/A   Overcast
10:45 AM 68.0 °F 64.0 °F 87% 29.85 in 10.0 mi NNE 15.0 mph - N/A   Overcast
10:54 AM 70.0 °F 64.0 °F 81% 29.85 in 10.0 mi NE 11.5 mph - N/A   Overcast
11:21 AM 70.0 °F 64.0 °F 81% 29.85 in 10.0 mi North 12.7 mph - N/A   Overcast
11:35 AM 70.0 °F 64.0 °F 81% 29.86 in 10.0 mi NNE 11.5 mph - N/A   Overcast
11:54 AM 70.0 °F 63.0 °F 78% 29.85 in 10.0 mi NE 12.7 mph - N/A   Overcast
12:35 PM 72.0 °F 61.0 °F 68% 29.85 in 10.0 mi NNE 15.0 mph - N/A   Overcast
12:54 PM 73.9 °F 62.1 °F 66% 29.85 in 10.0 mi NE 9.2 mph 18.4 mph N/A   Overcast
1:54 PM 73.9 °F 61.0 °F 64% 29.86 in 10.0 mi North 6.9 mph - N/A   Overcast
2:54 PM 73.0 °F 59.0 °F 61% 29.87 in 10.0 mi North 6.9 mph - N/A   Overcast
3:54 PM 75.0 °F 60.1 °F 60% 29.88 in 10.0 mi ENE 6.9 mph - N/A   Mostly Cloudy
4:54 PM 75.0 °F 60.1 °F 60% 29.88 in 10.0 mi Calm Calm - N/A   Partly Cloudy
5:54 PM 73.9 °F 60.1 °F 62% 29.88 in 10.0 mi East 3.5 mph - N/A   Clear
6:54 PM 72.0 °F 60.1 °F 66% 29.88 in 10.0 mi East 4.6 mph - N/A   Partly Cloudy
7:54 PM 69.1 °F 64.0 °F 84% 29.90 in 10.0 mi Calm Calm - N/A   Clear
8:54 PM 66.0 °F 63.0 °F 90% 29.90 in 10.0 mi Calm Calm - N/A   Scattered Clouds
9:54 PM 66.0 °F 64.0 °F 93% 29.92 in 10.0 mi Calm Calm - N/A   Mostly Cloudy
10:54 PM 64.0 °F 63.0 °F 96% 29.91 in 10.0 mi Calm Calm - N/A   Clear
11:54 PM 64.0 °F 63.0 °F 96% 29.90 in 10.0 mi Calm Calm - N/A   Clear